CT2IRK-11 Weather Reports


Display with metric or nautical units.
time (UTC)temp
F
wind
direction
speed
MPH
gust
MPH
rain 1hr
in
rain 24hr
in
rain mn
in
humidity
%
barometer
mb
20260905044005 67 202 0.0 0.0 0.00 0.00 0.00 95 1009.8
20260905043005 67 231 0.0 0.0 0.00 0.00 0.00 95 1009.8
20260905042006 67 202 0.0 0.0 0.00 0.00 0.00 94 1009.8
20260905041005 67 220 0.0 0.0 0.00 0.00 0.00 93 1009.9
20260905040005 67 225 0.0 0.0 0.00 0.00 0.00 89 1009.8
20260905035006 68 68 0.0 0.0 0.00 0.00 0.00 87 1009.8
20260905033005 68 44 0.0 0.0 0.00 0.00 0.00 88 1009.8
20260905032005 69 72 0.0 0.0 0.00 0.00 0.00 88 1009.8
20260905031005 69 22 0.0 0.0 0.00 0.00 0.00 87 1009.8
20260905030006 70 22 0.0 0.0 0.00 0.00 0.00 86 1010.0
20260905024005 72 68 0.0 0.0 0.00 0.00 0.00 78 1009.9
20260905023005 73 180 0.0 0.0 0.00 0.00 0.00 76 1009.8
20260905020005 72 184 0.0 0.0 0.00 0.00 0.00 80 1010.1
20260905015005 72 202 0.0 0.0 0.00 0.00 0.00 80 1010.2
20260905014006 72 154 0.0 0.0 0.00 0.00 0.00 79 1010.2
20260905012005 71 190 2.0 6.0 0.00 0.00 0.00 80 1010.3
20260905011005 69 221 0.0 0.0 0.00 0.00 0.00 89 1010.2
20260905010006 69 225 0.0 0.0 0.00 0.00 0.00 88 1010.4
20260905005005 70 231 0.0 0.0 0.00 0.00 0.00 86 1010.3
20260905004005 71 133 0.0 0.0 0.00 0.00 0.00 86 1010.3
20260905003005 71 202 0.0 0.0 0.00 0.00 0.00 85 1010.3
20260905002005 72 96 0.0 0.0 0.00 0.00 0.00 82 1010.3
20260905001005 72 313 0.0 0.0 0.00 0.00 0.00 81 1010.2
20260905000005 72 0 0.0 0.0 0.00 0.00 0.00 81 1010.4
20260904235005 73 68 0.0 0.0 0.00 0.00 0.00 78 1010.5
20260904234005 74 225 0.0 0.0 0.00 0.00 0.00 75 1010.5
20260904233005 74 202 0.0 0.0 0.00 0.00 0.00 73 1010.5
20260904232006 75 208 0.0 0.0 0.00 0.00 0.00 73 1010.5
20260904231005 76 225 0.0 0.0 0.00 0.00 0.00 70 1010.7
20260904230007 76 202 0.0 0.0 0.00 0.00 0.00 71 1010.6
20260904225006 77 200 0.0 1.0 0.00 0.00 0.00 68 1010.7
20260904224005 80 62 0.0 0.0 0.00 0.00 0.00 57 1010.7
20260904223005 80 58 0.0 0.0 0.00 0.00 0.00 56 1010.6
20260904222005 81 17 0.0 0.0 0.00 0.00 0.00 53 1010.8
20260904221006 82 55 0.0 0.0 0.00 0.00 0.00 53 1010.9
20260904220005 82 63 0.0 8.0 0.00 0.00 0.00 54 1010.9
20260904215006 81 62 3.0 8.0 0.00 0.00 0.00 56 1011.1
20260904214005 81 49 2.0 7.0 0.00 0.00 0.00 59 1011.1
20260904213005 80 45 5.0 7.0 0.00 0.00 0.00 62 1010.9
20260904212006 80 63 4.0 8.0 0.00 0.00 0.00 62 1011.1
20260904211005 80 45 0.0 1.0 0.00 0.00 0.00 63 1011.2
20260904210005 80 71 0.0 1.0 0.00 0.00 0.00 63 1011.2
20260904205005 80 22 0.0 0.0 0.00 0.00 0.00 62 1011.2
20260904203005 81 42 0.0 8.0 0.00 0.00 0.00 62 1011.2
20260904202005 81 59 0.0 0.0 0.00 0.00 0.00 66 1011.2
20260904201005 81 35 0.0 0.0 0.00 0.00 0.00 64 1011.0
20260904200005 82 45 0.0 0.0 0.00 0.00 0.00 64 1010.8
20260904195006 82 31 5.0 10.0 0.00 0.00 0.00 62 1010.6
20260904194006 82 33 0.0 1.0 0.00 0.00 0.00 68 1010.6
20260904193005 81 22 0.0 0.0 0.00 0.00 0.00 68 1010.6
20260904192005 82 45 0.0 0.0 0.00 0.00 0.00 70 1010.4
20260904190006 83 315 0.0 0.0 0.00 0.00 0.00 65 1010.6
20260904185005 83 211 0.0 0.0 0.00 0.00 0.00 64 1010.3
20260904184006 83 354 0.0 0.0 0.00 0.00 0.00 64 1010.3
20260904183005 83 35 0.0 0.0 0.00 0.00 0.00 63 1010.6
20260904181005 85 65 0.0 0.0 0.00 0.00 0.00 58 1011.4
20260904180005 85 184 0.0 0.0 0.00 0.00 0.00 59 1011.3
20260904175005 85 148 0.0 0.0 0.00 0.00 0.00 61 1011.0
20260904174005 85 231 0.0 6.0 0.00 0.00 0.00 61 1011.0
20260904173006 86 257 1.0 8.0 0.00 0.00 0.00 57 1011.8
20260904172007 86 180 0.0 7.0 0.00 0.00 0.00 56 1012.1
20260904171008 86 197 4.0 7.0 0.00 0.00 0.00 57 1011.9
20260904170006 86 195 4.0 7.0 0.00 0.00 0.00 57 1011.7
20260904165211 87 170 0.0 0.0 0.00 0.00 0.00 54 1011.5
20260904164005 87 193 0.0 0.0 0.00 0.00 0.00 55 1011.5
20260904163005 86 311 0.0 0.0 0.00 0.00 0.00 56 1010.9
20260904162005 87 294 0.0 0.0 0.00 0.00 0.00 56 1011.8
20260904161005 88 319 0.0 6.0 0.00 0.00 0.00 52 1012.4
20260904160005 89 248 1.0 6.0 0.00 0.00 0.00 52 1012.0
20260904155005 90 223 0.0 1.0 0.00 0.00 0.00 48 1012.1
20260904154005 90 199 0.0 1.0 0.00 0.00 0.00 46 1012.1
20260904153005 90 146 0.0 0.0 0.00 0.00 0.00 46 1011.8
20260904152005 89 78 2.0 6.0 0.00 0.00 0.00 49 1011.5
20260904145005 90 52 0.0 0.0 0.00 0.00 0.00 49 1012.5
20260904143004 89 30 0.0 0.0 0.00 0.00 0.00 49 1012.4
20260904142005 89 320 0.0 0.0 0.00 0.00 0.00 50 1012.3
20260904141005 89 22 0.0 2.0 0.00 0.00 0.00 51 1012.4
20260904135005 90 193 0.0 0.0 0.00 0.00 0.00 49 1013.1
20260904134005 89 212 0.0 0.0 0.00 0.00 0.00 50 1013.1
20260904133005 89 270 0.0 0.0 0.00 0.00 0.00 49 1013.0
20260904131005 91 270 0.0 0.0 0.00 0.00 0.00 46 1013.0
20260904130004 91 270 0.0 0.0 0.00 0.00 0.00 47 1013.3
20260904125005 90 270 0.0 0.0 0.00 0.00 0.00 48 1012.9
20260904124005 89 327 0.0 0.0 0.00 0.00 0.00 50 1012.9
20260904123005 88 270 0.0 0.0 0.00 0.00 0.00 50 1013.2
20260904122005 87 280 0.0 0.0 0.00 0.00 0.00 51 1013.4
20260904121005 86 270 0.0 1.0 0.00 0.00 0.00 53 1013.7
20260904114004 83 10 0.0 0.0 0.00 0.00 0.00 56 1012.9
20260904112005 81 282 1.0 1.0 0.00 0.00 0.00 61 1013.5
20260904111005 81 287 0.0 3.0 0.00 0.00 0.00 64 1013.1
20260904105005 81 356 0.0 1.0 0.00 0.00 0.00 61 1013.6
20260904104005 81 29 0.0 0.0 0.00 0.00 0.00 62 1013.6
20260904103005 81 264 0.0 2.0 0.00 0.00 0.00 61 1013.8
20260904102005 80 136 1.0 6.0 0.00 0.00 0.00 62 1013.8
20260904100005 77 235 4.0 14.0 0.00 0.00 0.00 66 1013.6
20260904095004 75 171 3.0 13.0 0.00 0.00 0.00 73 1012.5
20260904094005 74 30 11.0 13.0 0.00 0.00 0.00 76 1012.5
20260904093004 75 26 5.0 8.0 0.00 0.00 0.00 73 1013.5
20260904092004 76 42 0.0 0.0 0.00 0.00 0.00 72 1013.9
20260904091004 75 215 0.0 0.0 0.00 0.00 0.00 73 1013.9
20260904090004 74 81 0.0 0.0 0.00 0.00 0.00 76 1013.4
20260904082005 74 270 0.0 0.0 0.00 0.00 0.00 76 1013.3
20260904081004 74 35 0.0 0.0 0.00 0.00 0.00 77 1013.5
20260904080004 74 125 0.0 0.0 0.00 0.00 0.00 77 1013.8
20260904074005 73 167 0.0 0.0 0.00 0.00 0.00 77 1013.5
20260904073004 72 192 0.0 1.0 0.00 0.00 0.00 79 1013.6
20260904072005 72 118 0.0 1.0 0.00 0.00 0.00 81 1013.1
20260904071004 72 270 0.0 0.0 0.00 0.00 0.00 87 1013.1
20260904070006 71 22 0.0 0.0 0.00 0.00 0.00 88 1013.0
20260904065005 71 21 0.0 1.0 0.00 0.00 0.00 90 1012.6
20260904064006 71 262 2.0 5.0 0.00 0.00 0.00 88 1012.6
20260904063006 71 58 0.0 0.0 0.00 0.00 0.00 87 1012.0
20260904061007 72 270 0.0 0.0 0.00 0.00 0.00 81 1012.0
20260904060006 72 202 0.0 0.0 0.00 0.00 0.00 81 1011.5
20260904055006 73 45 0.0 0.0 0.00 0.00 0.00 75 1011.6
20260904054005 73 209 0.0 0.0 0.00 0.00 0.00 76 1011.6
20260904053006 72 90 0.0 0.0 0.00 0.00 0.00 83 1011.6
20260904052006 72 7 0.0 0.0 0.00 0.00 0.00 83 1011.3
20260904050005 72 89 0.0 0.0 0.00 0.00 0.00 81 1011.1